SAS554 ESSA-EKBI

Flight info

Callsign SAS554
Flight time N/A
Altitude 34000
Route ARS N623 BEDLA N866 LAPSI DCT LOKSA
Aircraft A321/M-SDE3FGHIRWY/LB1

Departure

Time 2026-05-07 19:01
Airport Stockholm-Arlanda Airport (ESSA)

Arrival

Time N/A
Airport Billund Airport (EKBI)
Time Latitude Longitude Altitude Speed Heading
2026-05-07 18:42 59.65288 17.92954 112 ft 0 kts 70°
2026-05-07 18:52 59.65284 17.92929 112 ft 4 kts 70°
2026-05-07 18:52 59.65275 17.92878 112 ft 4 kts 70°
2026-05-07 18:52 59.65265 17.92828 111 ft 4 kts 70°
2026-05-07 18:52 59.65257 17.92781 109 ft 2 kts 70°
2026-05-07 18:53 59.65256 17.92778 109 ft 0 kts 70°
2026-05-07 18:57 59.65268 17.92792 111 ft 12 kts 26°
2026-05-07 18:58 59.65388 17.92687 112 ft 21 kts 333°
2026-05-07 18:58 59.65531 17.92534 105 ft 26 kts 338°
2026-05-07 18:58 59.65707 17.92442 104 ft 17 kts 346°
2026-05-07 18:58 59.65826 17.92445 106 ft 18 kts 11°
2026-05-07 18:59 59.65912 17.92349 110 ft 13 kts 281°
2026-05-07 18:59 59.65915 17.92321 111 ft 0 kts 281°
2026-05-07 19:00 59.65924 17.92201 114 ft 17 kts 269°
2026-05-07 19:00 59.65837 17.92087 112 ft 13 kts 197°
2026-05-07 19:00 59.65737 17.92049 109 ft 17 kts 189°
2026-05-07 19:01 59.65536 17.91977 107 ft 61 kts 190°
2026-05-07 19:01 59.64859 17.91738 107 ft 133 kts 190°
2026-05-07 19:01 59.63787 17.91354 322 ft 171 kts 189°
2026-05-07 19:01 59.62593 17.90920 1080 ft 174 kts 189°
2026-05-07 19:02 59.61427 17.90243 1748 ft 183 kts 211°
2026-05-07 19:02 59.60582 17.88183 2023 ft 206 kts 238°
2026-05-07 19:02 59.59824 17.85631 2345 ft 222 kts 238°
2026-05-07 19:02 59.59038 17.82978 3035 ft 224 kts 238°
2026-05-07 19:03 59.58262 17.80279 3686 ft 231 kts 242°
2026-05-07 19:03 59.57493 17.77328 4047 ft 252 kts 243°
2026-05-07 19:03 59.56817 17.74076 4766 ft 260 kts 259°
2026-05-07 19:03 59.56753 17.70511 5614 ft 261 kts 274°
2026-05-07 19:04 59.56855 17.66919 6488 ft 264 kts 274°
2026-05-07 19:04 59.56942 17.63282 7339 ft 265 kts 273°
2026-05-07 19:04 59.57018 17.59687 8208 ft 266 kts 273°
2026-05-07 19:04 59.57095 17.55980 9089 ft 267 kts 274°
2026-05-07 19:05 59.57168 17.52355 9958 ft 268 kts 274°
2026-05-07 19:05 59.57243 17.48637 10551 ft 280 kts 274°
2026-05-07 19:05 59.57323 17.44652 10756 ft 302 kts 274°
2026-05-07 19:05 59.57406 17.40431 11225 ft 312 kts 274°
2026-05-07 19:06 59.57486 17.36129 11907 ft 316 kts 274°
2026-05-07 19:06 59.57644 17.27388 13335 ft 321 kts 273°
2026-05-07 19:06 59.57722 17.22958 14036 ft 324 kts 273°
2026-05-07 19:07 59.57800 17.18497 14672 ft 326 kts 273°
2026-05-07 19:07 59.57876 17.14009 15335 ft 328 kts 273°
2026-05-07 19:07 59.57950 17.09500 15996 ft 330 kts 273°
2026-05-07 19:07 59.58023 17.04967 16663 ft 331 kts 273°
2026-05-07 19:08 59.58097 17.00413 17313 ft 333 kts 273°
2026-05-07 19:08 59.58173 16.95831 17955 ft 335 kts 273°
2026-05-07 19:08 59.58248 16.91214 18566 ft 337 kts 272°
2026-05-07 19:08 59.58319 16.86579 19077 ft 339 kts 272°
2026-05-07 19:09 59.58386 16.81910 19610 ft 341 kts 272°
2026-05-07 19:09 59.58451 16.77210 20143 ft 344 kts 272°
2026-05-07 19:09 59.58517 16.72483 20671 ft 346 kts 272°
2026-05-07 19:09 59.58584 16.67722 21188 ft 348 kts 272°
2026-05-07 19:10 59.58822 16.63029 21669 ft 349 kts 281°
2026-05-07 19:10 59.59317 16.58254 22175 ft 352 kts 281°
2026-05-07 19:10 59.59796 16.53569 22664 ft 354 kts 281°
2026-05-07 19:10 59.60278 16.48795 23160 ft 356 kts 281°
2026-05-07 19:11 59.60758 16.43988 23645 ft 358 kts 281°
2026-05-07 19:11 59.61236 16.39150 24053 ft 360 kts 281°
2026-05-07 19:11 59.61716 16.34287 24463 ft 361 kts 281°
2026-05-07 19:11 59.62108 16.29373 24864 ft 363 kts 274°
2026-05-07 19:12 59.62011 16.24374 25258 ft 367 kts 263°
2026-05-07 19:12 59.61366 16.19455 25651 ft 373 kts 252°
2026-05-07 19:12 59.60183 16.14848 26040 ft 381 kts 241°
2026-05-07 19:12 59.58662 16.10539 26419 ft 384 kts 240°
2026-05-07 19:13 59.57118 16.06217 26799 ft 386 kts 240°
2026-05-07 19:13 59.55567 16.01884 27175 ft 388 kts 240°
2026-05-07 19:13 59.54006 15.97528 27546 ft 390 kts 240°
2026-05-07 19:13 59.52434 15.93150 27907 ft 392 kts 240°
2026-05-07 19:14 59.50857 15.88757 28270 ft 394 kts 240°
2026-05-07 19:14 59.49268 15.84339 28580 ft 397 kts 239°
2026-05-07 19:14 59.47663 15.79879 28853 ft 401 kts 240°
2026-05-07 19:14 59.46045 15.75392 29177 ft 403 kts 239°
2026-05-07 19:15 59.44415 15.70884 29513 ft 406 kts 240°
2026-05-07 19:15 59.42772 15.66354 29840 ft 408 kts 240°
2026-05-07 19:15 59.41116 15.61796 30181 ft 410 kts 240°
2026-05-07 19:15 59.39456 15.57226 30454 ft 412 kts 240°
2026-05-07 19:16 59.38350 15.54189 30635 ft 414 kts 240°
2026-05-07 19:16 59.36669 15.49588 30895 ft 416 kts 240°
2026-05-07 19:16 59.34978 15.44973 31147 ft 417 kts 240°
2026-05-07 19:16 59.32726 15.38839 31483 ft 420 kts 240°
2026-05-07 19:17 59.31572 15.35701 31636 ft 421 kts 240°
2026-05-07 19:17 59.29857 15.31041 31916 ft 421 kts 240°
2026-05-07 19:17 59.28150 15.26409 32243 ft 420 kts 240°
2026-05-07 19:17 59.26439 15.21772 32451 ft 421 kts 239°
2026-05-07 19:18 59.24721 15.17124 32670 ft 423 kts 239°
2026-05-07 19:18 59.22994 15.12462 32950 ft 423 kts 239°
2026-05-07 19:18 59.21265 15.07814 33260 ft 423 kts 239°
2026-05-07 19:18 59.19535 15.03181 33564 ft 422 kts 239°
2026-05-07 19:19 59.17804 14.98547 33908 ft 422 kts 239°
2026-05-07 19:19 59.16078 14.93930 34107 ft 422 kts 239°
2026-05-07 19:19 59.12707 14.84943 34154 ft 408 kts 239°
2026-05-07 19:20 59.09374 14.76074 34135 ft 405 kts 239°
2026-05-07 19:20 59.06045 14.67247 34158 ft 405 kts 239°
2026-05-07 19:21 59.02697 14.58405 34144 ft 408 kts 238°
2026-05-07 19:21 58.99318 14.49531 34144 ft 408 kts 238°
2026-05-07 19:22 58.95937 14.40682 34147 ft 409 kts 238°
2026-05-07 19:22 58.92529 14.31893 34147 ft 411 kts 234°
2026-05-07 19:23 58.88332 14.24242 34147 ft 416 kts 226°
2026-05-07 19:23 58.83961 14.16877 34148 ft 417 kts 226°
2026-05-07 19:24 58.79592 14.09507 34120 ft 417 kts 226°
2026-05-07 19:24 58.75215 14.02136 34126 ft 418 kts 226°
2026-05-07 19:25 58.70839 13.94813 34135 ft 419 kts 226°
2026-05-07 19:25 58.66436 13.87470 34140 ft 419 kts 225°
2026-05-07 19:26 58.62023 13.80142 34145 ft 419 kts 225°
2026-05-07 19:26 58.57611 13.72838 34125 ft 419 kts 225°
2026-05-07 19:27 58.53188 13.65541 34133 ft 420 kts 225°
2026-05-07 19:27 58.48755 13.58244 34134 ft 421 kts 225°
2026-05-07 19:28 58.44314 13.50956 34137 ft 421 kts 225°
2026-05-07 19:28 58.39892 13.43742 34139 ft 421 kts 225°
2026-05-07 19:29 58.35434 13.36489 34147 ft 421 kts 225°
2026-05-07 19:29 58.30968 13.29243 34126 ft 422 kts 224°
2026-05-07 19:30 58.26489 13.21998 34126 ft 423 kts 224°
2026-05-07 19:30 58.21994 13.14753 34130 ft 424 kts 224°
2026-05-07 19:31 58.17487 13.07526 34141 ft 425 kts 224°
2026-05-07 19:31 58.12972 13.00290 34156 ft 425 kts 224°
2026-05-07 19:32 58.08485 12.93131 34159 ft 424 kts 224°
2026-05-07 19:32 58.03963 12.85950 34160 ft 424 kts 224°
2026-05-07 19:33 57.99437 12.78788 34161 ft 424 kts 224°
2026-05-07 19:33 57.94928 12.71679 34166 ft 424 kts 223°
2026-05-07 19:34 57.90402 12.64564 34161 ft 424 kts 223°
2026-05-07 19:34 57.85875 12.57463 34160 ft 424 kts 223°
2026-05-07 19:35 57.81337 12.50368 34135 ft 425 kts 223°
2026-05-07 19:35 57.76783 12.43278 34133 ft 426 kts 223°
2026-05-07 19:36 57.72208 12.36199 34073 ft 432 kts 222°
2026-05-07 19:36 57.67501 12.28943 34129 ft 440 kts 222°
2026-05-07 19:37 57.62717 12.21606 34322 ft 449 kts 222°
2026-05-07 19:37 57.60301 12.17910 34455 ft 450 kts 221°
2026-05-07 19:37 57.57880 12.14190 34645 ft 451 kts 221°
2026-05-07 19:38 57.55465 12.10459 34853 ft 451 kts 221°
2026-05-07 19:38 57.53053 12.06736 35104 ft 450 kts 221°
2026-05-07 19:38 57.50633 12.03057 35371 ft 448 kts 221°
2026-05-07 19:38 57.48202 11.99434 35635 ft 447 kts 220°
2026-05-07 19:39 57.45765 11.95865 35905 ft 445 kts 220°
2026-05-07 19:39 57.43322 11.92354 36215 ft 443 kts 219°
2026-05-07 19:39 57.40902 11.88934 36528 ft 440 kts 219°
2026-05-07 19:39 57.38462 11.85536 36867 ft 437 kts 219°
2026-05-07 19:40 57.36025 11.82181 37212 ft 434 kts 218°
2026-05-07 19:40 57.33603 11.78885 37567 ft 430 kts 218°
2026-05-07 19:40 57.31191 11.75642 37962 ft 426 kts 217°